{"data":{"norad_id":67273,"epoch":"2026-09-20T22:45:09.999360Z","epoch_age_seconds":64356,"freshness":"FRESH","line1":"1 67273U 25313AB  26263.94803240  .00001789  00000+0  82171-4 0  9995","line2":"2 67273  97.3878 336.6466 0015086  41.0262 319.2105 15.21594673 40499","mean_motion":15.21594673,"eccentricity":0.0015086,"inclination_deg":97.3878,"raan_deg":336.6466,"arg_perigee_deg":41.0262,"mean_anomaly_deg":319.2105,"bstar":8.2171e-5,"rev_number":4049,"period_min":94.637555293281,"perigee_km":490.6521301152,"apogee_km":511.40795291286,"semimajor_km":6879.167041514,"source":"CELESTRAK","updated_at":"2026-09-21T09:00:16.544283Z"}}